KLM652 EHAM-KIAD

Flight info

Callsign KLM652
Flight time N/A
Altitude 38000
Route BERGI L60 PENIL M144 BAGSO DCT DOGAL/M084F390 NATA NEEKO/N0475F400 N622E TAFFY DCT KJOHN DCT ALB HYPER9
Aircraft A359/H-SDE2E3GHIJ3J4J5LM1ORWXY/LB1D1

Departure

Time 2026-04-28 11:11
Airport Amsterdam Airport Schiphol (EHAM)

Arrival

Time N/A
Airport Washington Dulles International Airport (KIAD)
Time Latitude Longitude Altitude Speed Heading
2026-04-28 10:51 52.31322 4.76664 5 ft 0 kts 124°
2026-04-28 11:01 52.31326 4.76653 5 ft 4 kts 125°
2026-04-28 11:01 52.31343 4.76618 8 ft 4 kts 127°
2026-04-28 11:01 52.31354 4.76589 7 ft 4 kts 95°
2026-04-28 11:02 52.31354 4.76556 8 ft 4 kts 69°
2026-04-28 11:02 52.31343 4.76530 9 ft 4 kts 31°
2026-04-28 11:02 52.31324 4.76511 7 ft 1 kts 33°
2026-04-28 11:02 52.31323 4.76511 7 ft 1 kts 33°
2026-04-28 11:06 52.31324 4.76511 5 ft 1 kts 33°
2026-04-28 11:06 52.31342 4.76530 5 ft 8 kts 33°
2026-04-28 11:07 52.31403 4.76555 5 ft 10 kts 347°
2026-04-28 11:07 52.31461 4.76458 5 ft 15 kts 304°
2026-04-28 11:07 52.31524 4.76301 5 ft 17 kts 298°
2026-04-28 11:07 52.31534 4.76099 5 ft 19 kts 266°
2026-04-28 11:08 52.31526 4.75878 5 ft 20 kts 266°
2026-04-28 11:08 52.31517 4.75635 5 ft 22 kts 266°
2026-04-28 11:08 52.31509 4.75381 5 ft 23 kts 266°
2026-04-28 11:08 52.31499 4.75114 5 ft 24 kts 266°
2026-04-28 11:09 52.31490 4.74855 5 ft 19 kts 267°
2026-04-28 11:09 52.31507 4.74695 5 ft 13 kts 314°
2026-04-28 11:09 52.31595 4.74665 5 ft 12 kts
2026-04-28 11:09 52.31662 4.74730 6 ft 10 kts 64°
2026-04-28 11:10 52.31668 4.74790 5 ft 0 kts 85°
2026-04-28 11:10 52.31668 4.74793 5 ft 3 kts 85°
2026-04-28 11:10 52.31679 4.75083 3 ft 57 kts 87°
2026-04-28 11:10 52.31713 4.76077 5 ft 116 kts 87°
2026-04-28 11:11 52.31766 4.77676 129 ft 154 kts 83°
2026-04-28 11:11 52.31907 4.79352 835 ft 148 kts 68°
2026-04-28 11:11 52.32667 4.80416 1449 ft 154 kts 12°
2026-04-28 11:11 52.33698 4.79938 1835 ft 169 kts 325°
2026-04-28 11:12 52.34781 4.78984 2079 ft 185 kts 350°
2026-04-28 11:12 52.35674 4.78968 2308 ft 198 kts
2026-04-28 11:12 52.37110 4.79120 2655 ft 215 kts
2026-04-28 11:12 52.38613 4.78792 3285 ft 221 kts 341°
2026-04-28 11:13 52.39923 4.77353 3789 ft 237 kts 318°
2026-04-28 11:13 52.41115 4.75347 4323 ft 252 kts 315°
2026-04-28 11:13 52.42333 4.73255 4990 ft 257 kts 316°
2026-04-28 11:13 52.43587 4.71149 5616 ft 261 kts 316°
2026-04-28 11:14 52.44881 4.69004 6242 ft 265 kts 316°
2026-04-28 11:14 52.46209 4.66887 6889 ft 267 kts 320°
2026-04-28 11:14 52.47804 4.65307 7538 ft 269 kts 336°
2026-04-28 11:14 52.49548 4.64147 8177 ft 272 kts 339°
2026-04-28 11:15 52.51312 4.63036 8844 ft 275 kts 339°
2026-04-28 11:15 52.53113 4.61890 9482 ft 278 kts 339°
2026-04-28 11:15 52.54933 4.60725 10174 ft 281 kts 338°
2026-04-28 11:15 52.56779 4.59535 10640 ft 291 kts 338°
2026-04-28 11:16 52.58711 4.58283 10894 ft 306 kts 338°
2026-04-28 11:16 52.60713 4.56982 11150 ft 320 kts 338°
2026-04-28 11:16 52.62832 4.55602 11419 ft 334 kts 337°
2026-04-28 11:16 52.65033 4.54168 11796 ft 343 kts 337°
2026-04-28 11:17 52.67153 4.52556 12274 ft 346 kts 328°
2026-04-28 11:17 52.68977 4.49974 12829 ft 346 kts 308°
2026-04-28 11:17 52.70395 4.46795 13375 ft 349 kts 303°
2026-04-28 11:17 52.71764 4.43470 13899 ft 352 kts 303°
2026-04-28 11:18 52.73150 4.40107 14400 ft 355 kts 303°
2026-04-28 11:18 52.74497 4.36677 14895 ft 356 kts 299°
2026-04-28 11:18 52.75540 4.33004 15383 ft 358 kts 292°
2026-04-28 11:18 52.76419 4.29121 15852 ft 361 kts 289°
2026-04-28 11:19 52.77213 4.25152 16330 ft 364 kts 288°
2026-04-28 11:19 52.77966 4.21191 16816 ft 366 kts 287°
2026-04-28 11:19 52.78729 4.17162 17274 ft 369 kts 287°
2026-04-28 11:19 52.79510 4.13102 17741 ft 372 kts 288°
2026-04-28 11:20 52.80311 4.09006 18218 ft 374 kts 288°
2026-04-28 11:20 52.81125 4.04894 18676 ft 377 kts 288°
2026-04-28 11:20 52.81950 4.00754 19062 ft 379 kts 288°
2026-04-28 11:20 52.82780 3.96602 19464 ft 381 kts 288°
2026-04-28 11:21 52.83605 3.92464 19856 ft 384 kts 288°
2026-04-28 11:21 52.84444 3.88247 20254 ft 386 kts 288°
2026-04-28 11:21 52.85279 3.84041 20653 ft 388 kts 288°
2026-04-28 11:21 52.86126 3.79758 21035 ft 390 kts 288°
2026-04-28 11:22 52.86962 3.75518 21421 ft 393 kts 288°
2026-04-28 11:22 52.87815 3.71186 21810 ft 395 kts 288°
2026-04-28 11:22 52.88667 3.66853 22196 ft 397 kts 288°
2026-04-28 11:22 52.89518 3.62506 22566 ft 399 kts 288°
2026-04-28 11:23 52.90381 3.58093 22937 ft 402 kts 288°
2026-04-28 11:23 52.91244 3.53670 23318 ft 404 kts 288°
2026-04-28 11:23 52.92105 3.49248 23696 ft 406 kts 288°
2026-04-28 11:23 52.92971 3.44782 24015 ft 409 kts 288°
2026-04-28 11:24 52.93846 3.40264 24323 ft 410 kts 288°
2026-04-28 11:24 52.94709 3.35799 24642 ft 412 kts 288°
2026-04-28 11:24 52.95584 3.31260 24962 ft 413 kts 288°
2026-04-28 11:24 52.96464 3.26684 25258 ft 416 kts 288°
2026-04-28 11:25 52.97332 3.22157 25562 ft 418 kts 288°
2026-04-28 11:25 52.98216 3.17546 25886 ft 420 kts 288°
2026-04-28 11:25 52.99100 3.12922 26218 ft 421 kts 288°
2026-04-28 11:25 52.99992 3.08238 26528 ft 424 kts 288°
2026-04-28 11:26 53.00884 3.03542 26852 ft 427 kts 288°
2026-04-28 11:26 53.01765 2.98889 27196 ft 428 kts 288°
2026-04-28 11:26 53.02669 2.94102 27544 ft 431 kts 288°
2026-04-28 11:26 53.03559 2.89382 27839 ft 434 kts 288°
2026-04-28 11:27 53.04467 2.84553 28159 ft 437 kts 288°
2026-04-28 11:27 53.05375 2.79711 28516 ft 439 kts 288°
2026-04-28 11:27 53.06277 2.74891 28855 ft 442 kts 288°
2026-04-28 11:27 53.07194 2.69969 29138 ft 446 kts 289°
2026-04-28 11:28 53.08117 2.65010 29463 ft 449 kts 289°
2026-04-28 11:28 53.09031 2.60083 29802 ft 451 kts 289°
2026-04-28 11:28 53.09962 2.55057 30138 ft 454 kts 289°
2026-04-28 11:28 53.10773 2.50038 30398 ft 459 kts 283°
2026-04-28 11:29 53.11323 2.44750 30677 ft 463 kts 281°
2026-04-28 11:29 53.11802 2.39442 30989 ft 465 kts 279°
2026-04-28 11:29 53.12244 2.34146 31289 ft 467 kts 279°
2026-04-28 11:29 53.12674 2.28779 31536 ft 470 kts 279°
2026-04-28 11:30 53.13101 2.23370 31799 ft 473 kts 279°
2026-04-28 11:30 53.13963 2.12436 32352 ft 476 kts 279°
2026-04-28 11:30 53.14396 2.06960 32557 ft 480 kts 279°
2026-04-28 11:31 53.14830 2.01481 32791 ft 482 kts 279°
2026-04-28 11:31 53.15270 1.95898 33060 ft 484 kts 279°
2026-04-28 11:31 53.15702 1.90380 33283 ft 486 kts 279°
2026-04-28 11:31 53.16141 1.84753 33483 ft 489 kts 279°
2026-04-28 11:32 53.16578 1.79106 33675 ft 491 kts 279°
2026-04-28 11:32 53.17008 1.73516 33928 ft 493 kts 279°
2026-04-28 11:32 53.17443 1.67816 34196 ft 494 kts 279°
2026-04-28 11:32 53.17878 1.62086 34453 ft 495 kts 279°
2026-04-28 11:33 53.18302 1.56445 34717 ft 494 kts 279°
2026-04-28 11:33 53.18730 1.50729 35024 ft 493 kts 279°
2026-04-28 11:33 53.19146 1.45124 35329 ft 492 kts 279°
2026-04-28 11:33 53.19566 1.39440 35579 ft 492 kts 279°
2026-04-28 11:34 53.19978 1.33832 35810 ft 492 kts 279°
2026-04-28 11:34 53.20393 1.28139 36106 ft 491 kts 279°
2026-04-28 11:34 53.20803 1.22484 36413 ft 490 kts 279°
2026-04-28 11:34 53.21207 1.16868 36644 ft 490 kts 279°
2026-04-28 11:35 53.21613 1.11194 36883 ft 490 kts 279°
2026-04-28 11:35 53.22013 1.05560 37159 ft 489 kts 279°
2026-04-28 11:35 53.22410 0.99929 37443 ft 488 kts 279°
2026-04-28 11:35 53.22801 0.94334 37673 ft 488 kts 279°
2026-04-28 11:36 53.23194 0.88681 37899 ft 488 kts 278°
2026-04-28 11:36 53.23583 0.83056 38166 ft 487 kts 278°
2026-04-28 11:36 53.23966 0.77474 38378 ft 487 kts 278°
2026-04-28 11:36 53.24350 0.71828 38419 ft 491 kts 278°
2026-04-28 11:37 53.25110 0.60542 38414 ft 491 kts 278°
2026-04-28 11:37 53.25865 0.49158 38418 ft 491 kts 278°
2026-04-28 11:38 53.26605 0.37847 38416 ft 492 kts 278°
2026-04-28 11:38 53.27338 0.26459 38415 ft 493 kts 278°
2026-04-28 11:39 53.28061 0.15066 38404 ft 493 kts 278°
2026-04-28 11:39 53.28773 0.03692 38417 ft 494 kts 278°
2026-04-28 11:40 53.29730 -0.07717 38402 ft 498 kts 284°
2026-04-28 11:40 53.31023 -0.19133 38404 ft 507 kts 284°
2026-04-28 11:41 53.32316 -0.30848 38427 ft 516 kts 283°
2026-04-28 11:41 53.33547 -0.42728 38422 ft 520 kts 283°
2026-04-28 11:42 53.34740 -0.54634 38422 ft 520 kts 283°
2026-04-28 11:42 53.35920 -0.66617 38427 ft 519 kts 283°
2026-04-28 11:43 53.37087 -0.78495 38429 ft 519 kts 283°
2026-04-28 11:43 53.38244 -0.90398 38426 ft 519 kts 283°
2026-04-28 11:44 53.39404 -1.02396 38429 ft 520 kts 283°
2026-04-28 11:44 53.40542 -1.14318 38430 ft 520 kts 283°
2026-04-28 11:45 53.41662 -1.26225 38434 ft 520 kts 283°
2026-04-28 11:45 53.42781 -1.38230 38432 ft 520 kts 283°
2026-04-28 11:46 53.43875 -1.50191 38433 ft 521 kts 283°
2026-04-28 11:46 53.44972 -1.62248 38426 ft 521 kts 283°
2026-04-28 11:47 53.46046 -1.74219 38431 ft 522 kts 282°
2026-04-28 11:47 53.47118 -1.86311 38425 ft 521 kts 282°
2026-04-28 11:48 53.48170 -1.98300 38422 ft 521 kts 282°
2026-04-28 11:48 53.49214 -2.10355 38419 ft 520 kts 282°
2026-04-28 11:49 53.50240 -2.22318 38429 ft 519 kts 282°
2026-04-28 11:49 53.51258 -2.34353 38416 ft 519 kts 282°
2026-04-28 11:50 53.52255 -2.46298 38426 ft 518 kts 282°
2026-04-28 11:50 53.53247 -2.58320 38418 ft 518 kts 282°
2026-04-28 11:51 53.54222 -2.70278 38437 ft 518 kts 282°
2026-04-28 11:51 53.55188 -2.82276 38447 ft 517 kts 282°
2026-04-28 11:52 53.56143 -2.94303 38451 ft 517 kts 282°
2026-04-28 11:52 53.57077 -3.06212 38453 ft 517 kts 282°
2026-04-28 11:53 53.58010 -3.18270 38451 ft 517 kts 282°
2026-04-28 11:53 53.58923 -3.30225 38450 ft 517 kts 282°
2026-04-28 11:54 53.59821 -3.42161 38440 ft 517 kts 281°
2026-04-28 11:54 53.60718 -3.54235 38435 ft 517 kts 281°
2026-04-28 11:55 53.61595 -3.66199 38434 ft 517 kts 281°
2026-04-28 11:55 53.62265 -3.78241 38439 ft 519 kts 278°
2026-04-28 11:56 53.62680 -3.90410 38439 ft 519 kts 277°
2026-04-28 11:56 53.63104 -4.02512 38440 ft 519 kts 278°
2026-04-28 11:57 53.63565 -4.14702 38440 ft 519 kts 278°
2026-04-28 11:57 53.64024 -4.26784 38444 ft 519 kts 278°
2026-04-28 11:58 53.64475 -4.38969 38441 ft 519 kts 278°
2026-04-28 11:58 53.64915 -4.51071 38442 ft 519 kts 277°
2026-04-28 11:59 53.65337 -4.63161 38442 ft 519 kts 277°
2026-04-28 11:59 53.65744 -4.75264 38441 ft 519 kts 277°
2026-04-28 12:00 53.66144 -4.87412 38449 ft 518 kts 277°
2026-04-28 12:00 53.66539 -4.99574 38448 ft 518 kts 277°
2026-04-28 12:01 53.66916 -5.11663 38462 ft 518 kts 277°
2026-04-28 12:01 53.67281 -5.23796 38460 ft 518 kts 277°
2026-04-28 12:02 53.67624 -5.35874 38462 ft 517 kts 276°
2026-04-28 12:02 53.67957 -5.48064 38463 ft 517 kts 276°
2026-04-28 12:03 53.68504 -5.60055 38465 ft 514 kts 281°
2026-04-28 12:03 53.69475 -5.71993 38465 ft 513 kts 282°
2026-04-28 12:04 53.70439 -5.83951 38467 ft 514 kts 281°
2026-04-28 12:04 53.71313 -5.95898 38466 ft 514 kts 281°
2026-04-28 12:05 53.72144 -6.07896 38463 ft 514 kts 280°
2026-04-28 12:05 53.72821 -6.17882 38460 ft 514 kts 280°
2026-04-28 12:06 53.73763 -6.31915 38456 ft 515 kts 280°
2026-04-28 12:06 53.74428 -6.41944 38461 ft 515 kts 280°
2026-04-28 12:07 53.75219 -6.54036 38457 ft 514 kts 280°
2026-04-28 12:07 53.75990 -6.66026 38455 ft 514 kts 279°
2026-04-28 12:08 53.76754 -6.78096 38452 ft 514 kts 279°
2026-04-28 12:08 53.77501 -6.90080 38449 ft 514 kts 279°
2026-04-28 12:09 53.78240 -7.02141 38447 ft 514 kts 279°
2026-04-28 12:09 53.78962 -7.14118 38454 ft 514 kts 279°
2026-04-28 12:10 53.79673 -7.26128 38432 ft 514 kts 278°
2026-04-28 12:10 53.80371 -7.38125 38430 ft 514 kts 278°
2026-04-28 12:11 53.81060 -7.50166 38432 ft 513 kts 278°
2026-04-28 12:11 53.81732 -7.62148 38437 ft 513 kts 278°
2026-04-28 12:12 53.82397 -7.74197 38431 ft 512 kts 278°
2026-04-28 12:12 53.83048 -7.86214 38434 ft 512 kts 278°
2026-04-28 12:13 53.83683 -7.98163 38432 ft 512 kts 277°
2026-04-28 12:13 53.84307 -8.10147 38423 ft 512 kts 277°
2026-04-28 12:14 53.84920 -8.22134 38427 ft 511 kts 277°
2026-04-28 12:14 53.85519 -8.34095 38422 ft 511 kts 277°
2026-04-28 12:15 53.86106 -8.46054 38427 ft 511 kts 277°
2026-04-28 12:15 53.86683 -8.58051 38425 ft 510 kts 276°
2026-04-28 12:16 53.87245 -8.69998 38428 ft 510 kts 276°
2026-04-28 12:16 53.87797 -8.81975 38426 ft 509 kts 276°
2026-04-28 12:17 53.88336 -8.93949 38427 ft 509 kts 276°
2026-04-28 12:17 53.88860 -9.05839 38427 ft 508 kts 276°
2026-04-28 12:18 53.89376 -9.17814 38425 ft 508 kts 276°
2026-04-28 12:18 53.89877 -9.29725 38426 ft 508 kts 275°
2026-04-28 12:19 53.90366 -9.41634 38431 ft 507 kts 275°
2026-04-28 12:19 53.90843 -9.53539 38434 ft 507 kts 275°
2026-04-28 12:20 53.91308 -9.65454 38437 ft 506 kts 275°
2026-04-28 12:20 53.91763 -9.77405 38437 ft 506 kts 275°
2026-04-28 12:21 53.92202 -9.89264 38439 ft 505 kts 274°
2026-04-28 12:21 53.92629 -10.01121 38440 ft 505 kts 274°
2026-04-28 12:22 53.93044 -10.12939 38443 ft 504 kts 274°
2026-04-28 12:22 53.93448 -10.24807 38444 ft 503 kts 274°
2026-04-28 12:23 53.93843 -10.36711 38449 ft 503 kts 274°
2026-04-28 12:23 53.94221 -10.48506 38450 ft 502 kts 273°
2026-04-28 12:24 53.94588 -10.60304 38447 ft 501 kts 273°
2026-04-28 12:24 53.94942 -10.72062 38449 ft 501 kts 273°
2026-04-28 12:25 53.95287 -10.83877 38457 ft 500 kts 273°
2026-04-28 12:25 53.95617 -10.95622 38449 ft 499 kts 272°
2026-04-28 12:26 53.95938 -11.07421 38455 ft 499 kts 272°
2026-04-28 12:26 53.96247 -11.19197 38445 ft 498 kts 272°
2026-04-28 12:27 53.96540 -11.30856 38448 ft 497 kts 272°
2026-04-28 12:27 53.96825 -11.42591 38450 ft 496 kts 272°
2026-04-28 12:28 53.97096 -11.54235 38446 ft 495 kts 272°
2026-04-28 12:28 53.97356 -11.65896 38445 ft 494 kts 271°
2026-04-28 12:29 53.97724 -11.83351 38451 ft 493 kts 271°
2026-04-28 12:30 53.97956 -11.95005 38445 ft 492 kts 271°
2026-04-28 12:30 53.98174 -12.06555 38449 ft 491 kts 271°
2026-04-28 12:31 53.98383 -12.18187 38447 ft 490 kts 271°
2026-04-28 12:31 53.98579 -12.29736 38446 ft 489 kts 271°
2026-04-28 12:32 53.98764 -12.41283 38444 ft 489 kts 270°
2026-04-28 12:32 53.98936 -12.52729 38448 ft 488 kts 270°
2026-04-28 12:33 53.99100 -12.64298 38444 ft 487 kts 270°
2026-04-28 12:33 53.99250 -12.75697 38446 ft 486 kts 270°
2026-04-28 12:34 53.99390 -12.87186 38446 ft 485 kts 270°
2026-04-28 12:34 53.99519 -12.98585 38445 ft 484 kts 270°
2026-04-28 12:35 53.99636 -13.10004 38445 ft 483 kts 270°
2026-04-28 12:35 53.99743 -13.21443 38437 ft 483 kts 270°
2026-04-28 12:36 53.99839 -13.32798 38443 ft 482 kts 270°
2026-04-28 12:36 53.99924 -13.44160 38442 ft 481 kts 269°
2026-04-28 12:37 53.99998 -13.55554 38438 ft 480 kts 269°
2026-04-28 12:37 54.00061 -13.66854 38437 ft 480 kts 269°
2026-04-28 12:38 54.00114 -13.78140 38442 ft 479 kts 269°
2026-04-28 12:38 54.00156 -13.89486 38444 ft 479 kts 269°
2026-04-28 12:39 54.00187 -14.00759 38442 ft 478 kts 269°
2026-04-28 12:39 54.00208 -14.12056 38436 ft 478 kts 269°
2026-04-28 12:40 54.00218 -14.23307 38434 ft 478 kts 269°
2026-04-28 12:40 54.00217 -14.34634 38435 ft 478 kts 269°
2026-04-28 12:41 54.00206 -14.45908 38434 ft 477 kts 269°
2026-04-28 12:41 54.00185 -14.57161 38432 ft 477 kts 268°
2026-04-28 12:42 54.00153 -14.68384 38434 ft 477 kts 268°
2026-04-28 12:42 54.00110 -14.79676 38430 ft 476 kts 268°
2026-04-28 12:43 54.00058 -14.90874 38428 ft 476 kts 268°
2026-04-28 12:43 54.00702 -15.02082 38425 ft 478 kts 283°
2026-04-28 12:44 54.02803 -15.12749 38425 ft 478 kts 289°
2026-04-28 12:44 54.05195 -15.23347 38424 ft 479 kts 290°
2026-04-28 12:45 54.07592 -15.33892 38425 ft 478 kts 290°
2026-04-28 12:45 54.09953 -15.44448 38423 ft 478 kts 289°
2026-04-28 12:46 54.12283 -15.55002 38420 ft 478 kts 289°
2026-04-28 12:46 54.14605 -15.65588 38420 ft 477 kts 289°
2026-04-28 12:47 54.16934 -15.76260 38418 ft 478 kts 289°
2026-04-28 12:47 54.19235 -15.86852 38419 ft 477 kts 289°
2026-04-28 12:48 54.21544 -15.97532 38414 ft 477 kts 289°
2026-04-28 12:48 54.23824 -16.08135 38411 ft 477 kts 289°
2026-04-28 12:49 54.26112 -16.18832 38410 ft 477 kts 288°
2026-04-28 12:49 54.28369 -16.29440 38405 ft 477 kts 288°
2026-04-28 12:50 54.30627 -16.40103 38404 ft 477 kts 288°
2026-04-28 12:50 54.32880 -16.50801 38400 ft 477 kts 288°
2026-04-28 12:51 54.35114 -16.61467 38400 ft 477 kts 288°
2026-04-28 12:51 54.37342 -16.72164 38398 ft 477 kts 288°
2026-04-28 12:52 54.39562 -16.82873 38397 ft 476 kts 288°
2026-04-28 12:52 54.41781 -16.93641 38393 ft 476 kts 288°
2026-04-28 12:53 54.43976 -17.04345 38389 ft 476 kts 287°
2026-04-28 12:53 54.46163 -17.15071 38386 ft 476 kts 287°
2026-04-28 12:54 54.48330 -17.25756 38385 ft 476 kts 287°
2026-04-28 12:54 54.50506 -17.36542 38384 ft 475 kts 287°
2026-04-28 12:55 54.52658 -17.47269 38381 ft 475 kts 287°
2026-04-28 12:55 54.54798 -17.57994 38377 ft 475 kts 287°
2026-04-28 12:56 54.56929 -17.68733 38375 ft 475 kts 286°
2026-04-28 12:56 54.59052 -17.79496 38372 ft 474 kts 286°
2026-04-28 12:57 54.61167 -17.90271 38371 ft 474 kts 286°
2026-04-28 12:57 54.63264 -18.01017 38364 ft 474 kts 285°
2026-04-28 12:58 54.65369 -18.11865 38366 ft 473 kts 285°
2026-04-28 12:58 54.67442 -18.22608 38360 ft 473 kts 285°
2026-04-28 12:59 54.69505 -18.33359 38361 ft 473 kts 285°
2026-04-28 12:59 54.71568 -18.44177 38354 ft 473 kts 284°
2026-04-28 13:00 54.73623 -18.55010 38347 ft 473 kts 284°
2026-04-28 13:00 54.75661 -18.65812 38335 ft 473 kts 284°
2026-04-28 13:01 54.77694 -18.76648 38333 ft 473 kts 284°
2026-04-28 13:01 54.79700 -18.87406 38333 ft 473 kts 284°
2026-04-28 13:02 54.81718 -18.98292 38329 ft 472 kts 283°
2026-04-28 13:02 54.83713 -19.09112 38330 ft 472 kts 283°
2026-04-28 13:03 54.85702 -19.19967 38325 ft 472 kts 283°
2026-04-28 13:03 54.87682 -19.30837 38321 ft 472 kts 283°
2026-04-28 13:04 54.89656 -19.41736 38317 ft 472 kts 283°
2026-04-28 13:04 54.91617 -19.52623 38303 ft 472 kts 283°
2026-04-28 13:05 54.93558 -19.63469 38308 ft 472 kts 282°
2026-04-28 13:05 54.95505 -19.74410 38300 ft 471 kts 282°
2026-04-28 13:06 54.97424 -19.85261 38302 ft 472 kts 282°
2026-04-28 13:06 54.99350 -19.96221 38294 ft 472 kts 282°
2026-04-28 13:07 55.01183 -20.07159 38294 ft 471 kts 279°
2026-04-28 13:07 55.02719 -20.18190 38289 ft 469 kts 278°
2026-04-28 13:08 55.04221 -20.29298 38280 ft 470 kts 278°
2026-04-28 13:08 55.05748 -20.40331 38279 ft 470 kts 278°
2026-04-28 13:09 55.07300 -20.51431 38275 ft 470 kts 278°
2026-04-28 13:09 55.08845 -20.62521 38270 ft 469 kts 278°
2026-04-28 13:10 55.10366 -20.73541 38261 ft 469 kts 277°
2026-04-28 13:10 55.11894 -20.84691 38264 ft 469 kts 277°
2026-04-28 13:11 55.13395 -20.95737 38244 ft 469 kts 277°
2026-04-28 13:11 55.14885 -21.06783 38259 ft 469 kts 277°
2026-04-28 13:12 55.16375 -21.17914 38245 ft 469 kts 277°
2026-04-28 13:12 55.17856 -21.29055 38239 ft 469 kts 276°
2026-04-28 13:13 55.19315 -21.40114 38240 ft 469 kts 276°
2026-04-28 13:13 55.20767 -21.51207 38236 ft 468 kts 276°
2026-04-28 13:14 55.22213 -21.62342 38224 ft 468 kts 276°
2026-04-28 13:14 55.23644 -21.73440 38230 ft 468 kts 276°
2026-04-28 13:15 55.25067 -21.84572 38217 ft 467 kts 275°
2026-04-28 13:15 55.26476 -21.95675 38218 ft 467 kts 275°
2026-04-28 13:16 55.27869 -22.06741 38213 ft 466 kts 275°
2026-04-28 13:16 55.29255 -22.17838 38208 ft 466 kts 275°
2026-04-28 13:17 55.30633 -22.28964 38205 ft 466 kts 275°
2026-04-28 13:17 55.31998 -22.40066 38199 ft 465 kts 275°
2026-04-28 13:18 55.33348 -22.51139 38193 ft 465 kts 274°
2026-04-28 13:18 55.34697 -22.62292 38189 ft 465 kts 274°
2026-04-28 13:19 55.36023 -22.73346 38183 ft 464 kts 274°
2026-04-28 13:19 55.37339 -22.84411 38181 ft 464 kts 274°
2026-04-28 13:20 55.38654 -22.95561 38177 ft 464 kts 274°
2026-04-28 13:20 55.39950 -23.06637 38171 ft 464 kts 274°
2026-04-28 13:21 55.41238 -23.17743 38161 ft 464 kts 274°
2026-04-28 13:21 55.42516 -23.28847 38172 ft 463 kts 274°
2026-04-28 13:22 55.43776 -23.39899 38156 ft 463 kts 273°
2026-04-28 13:22 55.44826 -23.49181 38160 ft 463 kts 273°
2026-04-28 13:23 55.46072 -23.60281 38152 ft 463 kts 273°
2026-04-28 13:23 55.47316 -23.71455 38146 ft 463 kts 273°